�������l�o���
Date,Time,MP-1(��Sv/h),MP-2(��Sv/h),MP-3(��Sv/h),MP-4(��Sv/h),MP-5(��Sv/h),MP-6(��Sv/h),MP-7(��Sv/h),MP-8(��Sv/h),����,����(m/s),���J
2022/05/03,00:00,0.553,0.817,0.528,1.000,0.693,0.339,0.589,0.556,�k�k��,3.4,��
2022/05/03,00:10,0.552,0.816,0.528,1.000,0.693,0.340,0.589,0.556,�k��,3.1,��
2022/05/03,00:20,0.554,0.816,0.527,1.002,0.692,0.339,0.588,0.555,�k��,3.4,��
2022/05/03,00:30,0.552,0.816,0.528,1.003,0.693,0.341,0.588,0.555,���k��,3.1,��
2022/05/03,00:40,0.552,0.817,0.528,1.000,0.694,0.340,0.588,0.555,�k��,2.5,��
2022/05/03,00:50,0.552,0.816,0.526,1.001,0.694,0.339,0.588,0.555,���k��,1.7,��
2022/05/03,01:00,0.552,0.817,0.527,0.999,0.693,0.340,0.588,0.553,�k��,2.5,��
2022/05/03,01:10,0.552,0.819,0.528,1.002,0.694,0.339,0.589,0.554,�k��,3.5,��
2022/05/03,01:20,0.552,0.817,0.527,1.000,0.693,0.340,0.590,0.556,�k��,4.1,��
2022/05/03,01:30,0.551,0.817,0.527,1.001,0.694,0.340,0.589,0.554,�k��,3.6,��
2022/05/03,01:40,0.552,0.817,0.527,1.002,0.694,0.339,0.589,0.555,�k�k��,3.8,��
2022/05/03,01:50,0.551,0.819,0.528,1.003,0.696,0.340,0.589,0.554,�k�k��,2.9,��
2022/05/03,02:00,0.552,0.817,0.528,1.002,0.695,0.340,0.589,0.554,�k,2.6,��
2022/05/03,02:10,0.551,0.817,0.528,1.003,0.693,0.340,0.589,0.558,�k�k��,2.0,��
2022/05/03,02:20,0.552,0.819,0.527,1.002,0.696,0.338,0.589,0.556,�k,2.6,��
2022/05/03,02:30,0.552,0.818,0.527,1.002,0.696,0.339,0.590,0.556,�k��,3.5,��
2022/05/03,02:40,0.551,0.820,0.528,1.000,0.695,0.340,0.589,0.556,�k�k��,2.2,��
2022/05/03,02:50,0.551,0.820,0.527,0.999,0.693,0.340,0.589,0.554,�k�k��,2.2,��
2022/05/03,03:00,0.552,0.818,0.529,1.001,0.696,0.340,0.588,0.555,�k�k��,2.2,��
2022/05/03,03:10,0.552,0.817,0.528,1.003,0.695,0.340,0.588,0.555,�k�k��,2.0,��
2022/05/03,03:20,0.552,0.818,0.529,1.003,0.696,0.340,0.586,0.554,�k��,2.3,��
2022/05/03,03:30,0.553,0.818,0.527,1.000,0.694,0.339,0.588,0.555,�k��,2.0,��
2022/05/03,03:40,0.551,0.817,0.529,1.002,0.695,0.340,0.588,0.556,�k��,0.9,��
2022/05/03,03:50,0.552,0.818,0.528,1.001,0.695,0.340,0.588,0.556,�k��,0.9,��
2022/05/03,04:00,0.552,0.819,0.530,1.002,0.695,0.340,0.589,0.555,�k��,0.9,��
2022/05/03,04:10,0.552,0.819,0.528,1.002,0.695,0.340,0.590,0.556,�k��,2.0,��
2022/05/03,04:20,0.553,0.819,0.526,1.000,0.694,0.340,0.590,0.557,�k��,3.2,��
2022/05/03,04:30,0.551,0.819,0.526,1.003,0.697,0.341,0.587,0.556,�k�k��,5.1,��
2022/05/03,04:40,0.552,0.821,0.529,1.002,0.695,0.341,0.590,0.556,�k��,7.2,��
2022/05/03,04:50,0.553,0.820,0.528,1.003,0.695,0.340,0.589,0.557,�k��,6.0,��
2022/05/03,05:00,0.553,0.816,0.527,1.003,0.696,0.340,0.589,0.556,�k�k��,4.2,��
2022/05/03,05:10,0.551,0.819,0.529,1.004,0.697,0.340,0.591,0.556,�k�k��,4.0,��
2022/05/03,05:20,0.553,0.818,0.528,1.002,0.696,0.341,0.589,0.556,�k�k��,4.8,��
2022/05/03,05:30,0.551,0.821,0.527,1.003,0.698,0.341,0.589,0.555,�k��,5.8,��
2022/05/03,05:40,0.551,0.817,0.529,1.004,0.696,0.339,0.589,0.556,�k�k��,6.4,��
2022/05/03,05:50,0.553,0.817,0.528,1.002,0.696,0.341,0.590,0.556,�k�k��,5.9,��
2022/05/03,06:00,0.551,0.820,0.529,1.004,0.696,0.341,0.589,0.555,�k�k��,4.8,��
2022/05/03,06:10,0.551,0.819,0.528,1.005,0.696,0.340,0.590,0.558,�k��,4.6,��
2022/05/03,06:20,0.553,0.819,0.529,1.004,0.697,0.340,0.589,0.556,�k��,5.0,��
2022/05/03,06:30,0.552,0.820,0.530,1.004,0.698,0.340,0.590,0.556,�k��,3.9,��
2022/05/03,06:40,0.553,0.819,0.528,1.004,0.698,0.341,0.591,0.557,�k�k��,3.2,��
2022/05/03,06:50,0.552,0.819,0.528,1.002,0.698,0.342,0.589,0.557,�k��,4.6,��
2022/05/03,07:00,0.551,0.822,0.529,1.004,0.697,0.342,0.590,0.557,���k��,5.2,��
2022/05/03,07:10,0.554,0.820,0.530,1.004,0.698,0.341,0.589,0.557,���k��,5.0,��
2022/05/03,07:20,0.556,0.821,0.531,1.004,0.697,0.339,0.592,0.556,���k��,3.3,��
2022/05/03,07:30,0.555,0.822,0.530,1.006,0.698,0.340,0.592,0.557,��,2.3,��
2022/05/03,07:40,0.555,0.822,0.531,1.006,0.698,0.339,0.593,0.557,���k��,2.5,��
2022/05/03,07:50,0.555,0.822,0.531,1.005,0.698,0.340,0.592,0.557,�k�k��,1.7,��
2022/05/03,08:00,0.556,0.823,0.531,1.006,0.699,0.340,0.591,0.557,���k��,2.3,��
2022/05/03,08:10,0.558,0.823,0.531,1.007,0.699,0.340,0.592,0.558,���k��,2.2,��
2022/05/03,08:20,0.556,0.821,0.531,1.005,0.699,0.340,0.591,0.556,���k��,1.5,��
2022/05/03,08:30,0.559,0.823,0.530,1.004,0.700,0.339,0.592,0.556,���k��,2.0,��
2022/05/03,08:40,0.557,0.825,0.531,1.006,0.701,0.339,0.591,0.556,���k��,3.3,��
2022/05/03,08:50,0.558,0.822,0.530,1.006,0.701,0.341,0.591,0.555,���k��,3.1,��
2022/05/03,09:00,0.559,0.824,0.530,1.006,0.700,0.341,0.590,0.554,�k��,3.1,��
2022/05/03,09:10,0.560,0.825,0.533,1.007,0.702,0.340,0.589,0.555,�k��,3.7,��
2022/05/03,09:20,0.560,0.825,0.533,1.007,0.703,0.341,0.589,0.556,�k��,3.4,��
2022/05/03,09:30,0.559,0.826,0.533,1.008,0.703,0.339,0.590,0.556,�k�k��,3.2,��
2022/05/03,09:40,0.559,0.825,0.533,1.006,0.703,0.341,0.589,0.555,�k��,3.5,��
2022/05/03,09:50,0.558,0.829,0.534,1.006,0.703,0.341,0.589,0.555,�k��,3.2,��
2022/05/03,10:00,0.558,0.826,0.532,1.007,0.703,0.340,0.590,0.556,���k��,2.9,��
2022/05/03,10:10,0.557,0.826,0.532,1.006,0.701,0.340,0.589,0.556,�k��,2.3,��
2022/05/03,10:20,0.558,0.830,0.532,1.007,0.705,0.340,0.589,0.555,��,2.6,��
2022/05/03,10:30,0.557,0.829,0.533,1.008,0.703,0.341,0.590,0.557,��,2.9,��
2022/05/03,10:40,0.557,0.828,0.534,1.007,0.706,0.341,0.588,0.555,���쓌,2.6,��
2022/05/03,10:50,0.559,0.828,0.534,1.006,0.706,0.339,0.590,0.557,���쓌,3.1,��
2022/05/03,11:00,0.560,0.828,0.531,1.009,0.705,0.341,0.590,0.557,�쓌,2.0,�L
2022/05/03,11:10,0.558,0.829,0.534,1.009,0.707,0.341,0.592,0.557,�쓌,2.0,��
2022/05/03,11:20,0.561,0.829,0.534,1.010,0.704,0.341,0.589,0.557,��쓌,3.1,��
2022/05/03,11:30,0.560,0.829,0.533,1.006,0.704,0.342,0.590,0.556,��쓌,3.5,��
2022/05/03,11:40,0.560,0.830,0.533,1.008,0.706,0.340,0.591,0.556,�쓌,2.9,��
2022/05/03,11:50,0.560,0.828,0.533,1.004,0.705,0.340,0.590,0.556,�쓌,5.3,��
2022/05/03,12:00,0.560,0.829,0.533,1.005,0.706,0.342,0.592,0.557,�쓌,6.2,��
2022/05/03,12:10,0.559,0.830,0.534,1.009,0.705,0.343,0.591,0.557,���쓌,5.0,��
2022/05/03,12:20,0.560,0.832,0.535,1.005,0.707,0.343,0.590,0.557,���쓌,6.2,��
2022/05/03,12:30,0.560,0.833,0.535,1.009,0.707,0.340,0.591,0.557,���쓌,5.5,�L
2022/05/03,12:40,0.561,0.830,0.534,1.009,0.708,0.342,0.591,0.558,���쓌,5.0,�L
2022/05/03,12:50,0.560,0.831,0.535,1.009,0.706,0.341,0.591,0.556,���쓌,5.1,��
2022/05/03,13:00,0.562,0.833,0.535,1.010,0.708,0.341,0.591,0.557,���쓌,4.6,��
2022/05/03,13:10,0.561,0.831,0.535,1.010,0.708,0.341,0.592,0.557,�쓌,4.0,��
2022/05/03,13:20,0.560,0.830,0.535,1.011,0.709,0.342,0.591,0.557,�쓌,4.2,��
2022/05/03,13:30,0.561,0.831,0.535,1.014,0.710,0.341,0.590,0.557,���쓌,4.8,��
2022/05/03,13:40,0.560,0.831,0.534,1.011,0.708,0.341,0.592,0.558,���쓌,4.5,��
2022/05/03,13:50,0.560,0.831,0.535,1.012,0.709,0.341,0.593,0.557,���쓌,3.8,��
2022/05/03,14:00,0.560,0.832,0.534,1.013,0.707,0.341,0.591,0.558,�쓌,2.5,��
2022/05/03,14:10,0.560,0.832,0.533,1.013,0.709,0.341,0.591,0.556,���쓌,2.5,��
2022/05/03,14:20,0.561,0.832,0.536,1.013,0.709,0.342,0.592,0.558,���쓌,4.1,��
2022/05/03,14:30,0.561,0.834,0.535,1.011,0.710,0.342,0.592,0.558,�쓌,3.7,��
2022/05/03,14:40,0.560,0.834,0.536,1.010,0.710,0.343,0.593,0.556,���쓌,2.0,��
2022/05/03,14:50,0.560,0.834,0.536,1.012,0.710,0.343,0.595,0.557,�k,1.7,��
2022/05/03,15:00,0.560,0.837,0.537,1.008,0.710,0.341,0.593,0.557,��,3.3,��
2022/05/03,15:10,0.562,0.833,0.534,1.010,0.709,0.342,0.593,0.559,���k��,3.7,��
2022/05/03,15:20,0.561,0.832,0.535,1.009,0.709,0.341,0.594,0.556,��,3.9,��
2022/05/03,15:30,0.560,0.833,0.537,1.009,0.710,0.342,0.592,0.557,��,3.5,��
2022/05/03,15:40,0.561,0.834,0.535,1.010,0.711,0.342,0.593,0.557,��,0.9,��
2022/05/03,15:50,0.562,0.838,0.535,1.011,0.710,0.341,0.594,0.557,��,2.8,��
2022/05/03,16:00,0.560,0.837,0.537,1.013,0.710,0.343,0.593,0.557,���쓌,4.4,��
2022/05/03,16:10,0.559,0.837,0.536,1.012,0.712,0.344,0.593,0.557,�쓌,3.7,��
2022/05/03,16:20,0.562,0.835,0.538,1.011,0.712,0.343,0.592,0.559,�쓌,4.4,��
2022/05/03,16:30,0.563,0.836,0.536,1.012,0.711,0.345,0.593,0.557,��,2.9,��
2022/05/03,16:40,0.562,0.838,0.536,1.010,0.711,0.345,0.594,0.558,��,0.6,��
2022/05/03,16:50,0.565,0.836,0.537,1.009,0.711,0.343,0.593,0.557,���k��,5.2,��
2022/05/03,17:00,0.562,0.837,0.535,1.013,0.710,0.344,0.593,0.558,��,6.5,��
2022/05/03,17:10,0.562,0.837,0.537,1.011,0.712,0.345,0.594,0.560,��,5.6,��
2022/05/03,17:20,0.561,0.836,0.538,1.013,0.709,0.344,0.594,0.560,��,4.5,��
2022/05/03,17:30,0.560,0.838,0.538,1.013,0.711,0.344,0.593,0.560,��,4.7,��
2022/05/03,17:40,0.562,0.837,0.536,1.012,0.711,0.344,0.593,0.562,��,3.7,��
2022/05/03,17:50,0.563,0.836,0.536,1.013,0.709,0.343,0.595,0.563,���k��,3.0,��
2022/05/03,18:00,0.565,0.836,0.537,1.013,0.710,0.344,0.593,0.560,���k��,2.3,��
2022/05/03,18:10,0.563,0.838,0.537,1.014,0.712,0.343,0.593,0.561,�k��,2.9,��
2022/05/03,18:20,0.564,0.839,0.536,1.015,0.712,0.344,0.593,0.561,���k��,2.6,��
2022/05/03,18:30,0.564,0.837,0.537,1.016,0.713,0.343,0.594,0.560,���k��,2.0,��
2022/05/03,18:40,0.564,0.837,0.538,1.016,0.711,0.344,0.593,0.560,�k��,2.6,��
2022/05/03,18:50,0.563,0.836,0.538,1.016,0.712,0.344,0.592,0.560,���k��,3.2,��
2022/05/03,19:00,0.564,0.836,0.537,1.016,0.712,0.344,0.594,0.560,���k��,4.8,��
2022/05/03,19:10,0.563,0.834,0.539,1.016,0.713,0.344,0.594,0.561,���k��,7.4,��
2022/05/03,19:20,0.563,0.836,0.537,1.015,0.710,0.344,0.594,0.561,���k��,6.9,��
2022/05/03,19:30,0.562,0.838,0.539,1.015,0.713,0.343,0.593,0.561,���k��,6.1,��
2022/05/03,19:40,0.563,0.835,0.537,1.015,0.715,0.343,0.594,0.561,���k��,6.2,��
2022/05/03,19:50,0.564,0.835,0.539,1.016,0.713,0.343,0.595,0.559,���k��,7.3,��
2022/05/03,20:00,0.563,0.835,0.538,1.017,0.714,0.343,0.594,0.561,���k��,6.5,��
2022/05/03,20:10,0.564,0.838,0.538,1.015,0.714,0.344,0.596,0.559,���k��,5.0,��
2022/05/03,20:20,0.564,0.839,0.539,1.016,0.712,0.344,0.592,0.559,���k��,3.5,��
2022/05/03,20:30,0.562,0.836,0.537,1.017,0.712,0.343,0.595,0.561,��쐼,3.1,��
2022/05/03,20:40,0.564,0.835,0.536,1.016,0.712,0.344,0.593,0.560,��,2.3,��
2022/05/03,20:50,0.563,0.835,0.539,1.014,0.713,0.343,0.595,0.558,��,1.7,��
2022/05/03,21:00,0.563,0.837,0.539,1.016,0.713,0.343,0.593,0.560,��,1.7,��
2022/05/03,21:10,0.563,0.836,0.537,1.016,0.713,0.342,0.592,0.561,��,3.7,��
2022/05/03,21:20,0.563,0.837,0.538,1.017,0.711,0.342,0.595,0.560,��쐼,5.2,��
2022/05/03,21:30,0.562,0.837,0.537,1.016,0.712,0.344,0.593,0.561,�쐼,5.7,��
2022/05/03,21:40,0.562,0.834,0.538,1.016,0.713,0.343,0.594,0.560,�쐼,5.5,��
2022/05/03,21:50,0.562,0.834,0.540,1.016,0.713,0.343,0.595,0.557,�쐼,4.6,��
2022/05/03,22:00,0.563,0.836,0.538,1.016,0.714,0.343,0.594,0.560,�쐼,4.3,��
2022/05/03,22:10,0.562,0.837,0.538,1.014,0.714,0.342,0.594,0.559,���쐼,3.1,��
2022/05/03,22:20,0.564,0.835,0.538,1.016,0.711,0.343,0.594,0.560,�쐼,4.1,��
2022/05/03,22:30,0.564,0.837,0.538,1.018,0.714,0.344,0.596,0.559,�쐼,4.4,��
2022/05/03,22:40,0.562,0.834,0.539,1.016,0.713,0.342,0.593,0.559,�쐼,3.6,��
2022/05/03,22:50,0.563,0.833,0.537,1.016,0.714,0.344,0.593,0.559,�쐼,2.3,��
2022/05/03,23:00,0.562,0.836,0.539,1.017,0.710,0.343,0.593,0.559,��쐼,1.7,��
2022/05/03,23:10,0.562,0.838,0.537,1.019,0.714,0.343,0.593,0.559,�쐼,2.6,��
2022/05/03,23:20,0.563,0.836,0.538,1.016,0.713,0.343,0.595,0.558,��쐼,3.2,��
2022/05/03,23:30,0.564,0.835,0.536,1.016,0.714,0.344,0.595,0.560,�쐼,3.9,��
2022/05/03,23:40,0.563,0.835,0.538,1.017,0.714,0.344,0.594,0.560,�쐼,3.5,��
2022/05/03,23:50,0.564,0.835,0.539,1.015,0.714,0.342,0.594,0.559,�쐼,3.6,��
